BEIDOU-3 M20

Last updated on Jan. 17, 2020, 4:32 a.m. UTC

1 44865U 19090B   20015.03902523  .00000041  00000-0  10000-3 0  9997
2 44865  55.0263 141.4078 0101954 179.6912 258.5767  1.83349233   545
UTC
Height (km)
Latitude
Longitude
Inclination
Orbital Period
UTC large
Height (km)
Speed (km/s)
/
Latitude / Longitude
Inclination (degrees)
Orbital Period (minutes)
Azimuth
Elevation
Range (km)
Doppler Factor
iOS Compass Heading
iOS Angle

Next 30 passes for location: Hong Kong

Rise time Rise Azimuth (degrees) Set time Set Azimuth (degrees) Duration Max altitude (degrees)

No matching passes for this satellites